Flag for Australia Weather past 2 weeks in Cairns, Queensland, Australia

Now
70 °F

Passing clouds.


Feels Like: 70 °F
Forecast: 62 / 79 °F
Wind: 13 mph from South

Location: Cairns Airport

Current Time: Aug 30, 2014 at 8:48:08 PM

Latest Report: Aug 30, 2014 at 8:00 PM


Visibility: N/A

Pressure: 30.04 "Hg

Humidity: 73%

Dew point: 61 °F

Location of CairnsLocation

Historic Weather in Cairns — Graph

°F

Cairns temperature yesterday

Maximum temperature yesterday: 81 °F (at 1:00 PM)
Minimum temperature yesterday: 55 °F (at 3:00 AM)
Average temperature yesterday: 68 °F

Past Weeks' High & Low Weather Summary

 TemperatureHumidityPressure
High82 °F (Aug 26, 12:30 PM)100% (Aug 16, 4:00 AM)30.09 "Hg (Aug 16, 4:00 AM)
Low54 °F (Aug 28, 3:00 AM)23% (Aug 28, 11:30 AM)29.83 "Hg (Aug 16, 2:30 PM)
Average70 °F68%30.01 "Hg
* Reported Aug 15 7:00 PM — Aug 30 7:30 PM, Cairns, Weather by CustomWeather, © 2014

Note: Actual official high and low records may vary slightly from our data, if they occured in-between our weather recording intervals... More about our weather records

Advertising

Cairns weather history for previous 24 hours

 ConditionsComfort  
Time TempWeatherWind HumidityBarometerVisibility
7:30 PM
Aug 30
70 °FPassing clouds.9 mph73%30.04 "HgN/A
7:00 PM70 °FPassing clouds.8 mph69%30.04 "HgN/A
6:30 PM72 °FPassing clouds.13 mph65%30.01 "HgN/A
6:00 PM72 °FScattered clouds.16 mph65%30.01 "HgN/A
5:30 PM73 °FScattered clouds.20 mph57%29.98 "HgN/A
5:00 PM73 °FPartly sunny.20 mph57%29.98 "HgN/A
4:30 PM75 °FPassing clouds.20 mph54%29.98 "HgN/A
4:00 PM77 °FPassing clouds.20 mph47%29.98 "HgN/A
3:30 PM77 °FPassing clouds.18 mph44%29.98 "HgN/A
3:00 PM79 °FScattered clouds.20 mph37%29.98 "HgN/A
2:30 PM79 °FScattered clouds.20 mph37%29.98 "HgN/A
2:00 PM79 °FScattered clouds.22 mph37%30.01 "HgN/A
1:30 PM77 °FScattered clouds.20 mph39%30.01 "HgN/A
1:00 PM75 °FPartly sunny.18 mph41%30.04 "HgN/A
12:30 PM77 °FPartly sunny.17 mph44%30.04 "HgN/A
12:00 PM75 °FPartly sunny.20 mph44%30.04 "HgN/A
11:30 AM75 °FPartly sunny.18 mph47%30.04 "HgN/A
11:00 AM75 °FPartly sunny.17 mph50%30.07 "HgN/A
10:30 AM73 °FPartly sunny.13 mph57%30.07 "HgN/A
10:00 AM73 °FPartly sunny.14 mph57%30.07 "HgN/A
9:00 AM72 °FPartly sunny.14 mph69%30.07 "HgN/A
8:30 AM72 °FPartly sunny.14 mph69%30.07 "HgN/A
8:00 AM70 °FPartly sunny.9 mph73%30.07 "HgN/A
7:30 AM70 °FPartly sunny.12 mph69%30.04 "HgN/A
7:00 AM68 °FPartly sunny.12 mph73%30.04 "HgN/A
5:00 AM68 °FPassing clouds.12 mph73%30.01 "HgN/A
4:30 AM68 °FPassing clouds.13 mph73%30.01 "HgN/A
4:00 AM68 °FPassing clouds.8 mph73%30.01 "HgN/A
3:00 AM64 °FPassing clouds.8 mph83%30.01 "HgN/A
2:30 AM68 °FPassing clouds.9 mph73%30.01 "HgN/A
2:00 AM70 °FPassing clouds.9 mph64%30.01 "HgN/A
1:30 AM68 °FPassing clouds.10 mph73%30.04 "HgN/A
1:00 AM68 °FPassing clouds.10 mph78%30.04 "HgN/A
12:30 AM68 °FPassing clouds.10 mph78%30.04 "HgN/A
12:00 AM70 °FPassing clouds.7 mph73%30.07 "HgN/A
11:30 PM
Aug 29
70 °FPassing clouds.9 mph73%30.07 "HgN/A
11:00 PM68 °FScattered showers. Passing clouds.12 mph78%30.07 "HgN/A
10:30 PM70 °FSprinkles. Passing clouds.12 mph73%30.07 "HgN/A
10:00 PM70 °FPassing clouds.10 mph69%30.07 "HgN/A
9:30 PM70 °FPartly cloudy.10 mph73%30.07 "HgN/A
9:00 PM70 °FPassing clouds.12 mph73%30.07 "HgN/A
8:00 PM70 °FPassing clouds.12 mph73%30.04 "HgN/A
Weather by CustomWeather, © 2014

See weather overviewHow to use our weather pages